KA7RLM Weather Reports


time (UTC)temp
C
wind
direction
speed
KPH
gust
KPH
rain 1hr
cm
rain 24hr
cm
rain mn
cm
humidity
%
barometer
mb
20260507080020 11 203 1.6 3.2 0.00 0.00 0.00 84 1021.7
20260507075016 11 216 1.6 4.8 0.00 0.00 0.00 84 1021.7
20260507074025 11 221 3.2 4.8 0.00 0.00 0.00 84 1021.6
20260507073030 11 208 3.2 6.4 0.00 0.00 0.00 84 1021.6
20260507072032 11 234 3.2 6.4 0.00 0.00 0.00 83 1021.6
20260507071018 12 222 3.2 6.4 0.00 0.00 0.00 83 1021.6
20260507070020 12 219 4.8 6.4 0.00 0.00 0.00 82 1021.6
20260507065023 12 209 4.8 9.7 0.00 0.00 0.00 83 1021.6
20260507064027 12 202 3.2 6.4 0.00 0.00 0.00 84 1021.5
20260507063051 12 228 6.4 9.7 0.00 0.00 0.00 84 1021.5
20260507062017 12 205 8.0 12.9 0.00 0.00 0.00 84 1021.5
20260507061019 12 234 6.4 9.7 0.00 0.00 0.00 84 1021.6
20260507060047 12 225 6.4 8.0 0.00 0.00 0.00 83 1021.5
20260507055025 12 212 6.4 9.7 0.00 0.00 0.00 82 1021.5
20260507054028 12 175 6.4 8.0 0.00 0.00 0.00 82 1021.5
20260507053032 12 211 4.8 8.0 0.00 0.00 0.00 81 1021.6
20260507052017 12 208 4.8 11.3 0.00 0.00 0.00 81 1021.6
20260507051021 12 219 6.4 9.7 0.00 0.00 0.00 81 1021.5
20260507050023 12 193 6.4 11.3 0.00 0.00 0.00 81 1021.5
20260507045047 13 227 1.6 4.8 0.00 0.00 0.00 82 1021.5
20260507044029 13 233 3.2 4.8 0.00 0.00 0.00 82 1021.5
20260507043043 13 217 3.2 4.8 0.00 0.00 0.00 81 1021.5
20260507042020 13 216 6.4 8.0 0.00 0.00 0.00 81 1021.5
20260507041037 13 232 4.8 9.7 0.00 0.00 0.00 80 1021.3
20260507040021 13 200 6.4 9.7 0.00 0.00 0.00 80 1021.3
20260507035024 13 203 6.4 12.9 0.00 0.00 0.00 79 1021.3
20260507034027 13 213 6.4 8.0 0.00 0.00 0.00 79 1021.2
20260507033030 13 251 3.2 4.8 0.00 0.00 0.00 79 1021.1
20260507032033 13 232 3.2 4.8 0.00 0.00 0.00 78 1020.9
20260507031018 13 236 4.8 8.0 0.00 0.00 0.00 78 1020.9
20260507030021 14 229 4.8 6.4 0.00 0.00 0.00 77 1020.8
20260507025025 14 218 4.8 6.4 0.00 0.00 0.00 77 1020.8
20260507024027 14 229 3.2 6.4 0.00 0.00 0.00 77 1020.7
20260507023029 14 225 4.8 8.0 0.00 0.00 0.00 77 1020.7
20260507022053 14 243 6.4 9.7 0.00 0.00 0.00 77 1020.6
20260507021038 14 222 8.0 12.9 0.00 0.00 0.00 76 1020.6
20260507020022 14 221 6.4 9.7 0.00 0.00 0.00 76 1020.6
20260507015025 15 225 8.0 12.9 0.00 0.00 0.00 74 1020.6
20260507014048 15 222 8.0 11.3 0.00 0.00 0.00 72 1020.6
20260507013031 15 197 8.0 14.5 0.00 0.00 0.00 73 1020.5
20260507012016 15 235 4.8 8.0 0.00 0.00 0.00 73 1020.6
20260507011046 15 221 6.4 9.7 0.00 0.00 0.00 71 1020.6
20260507010044 16 249 9.7 12.9 0.00 0.00 0.00 70 1020.6
20260507005022 16 212 9.7 12.9 0.00 0.00 0.00 69 1020.6
20260507004019 16 231 6.4 9.7 0.00 0.00 0.00 70 1020.6
20260507003036 16 235 9.7 12.9 0.00 0.00 0.00 69 1020.6
20260507002019 16 248 8.0 12.9 0.00 0.00 0.00 71 1020.6
20260507001023 16 254 6.4 12.9 0.00 0.00 0.00 70 1020.6
20260507000026 16 233 8.0 12.9 0.00 0.00 0.00 68 1020.6
20260506235028 16 187 9.7 16.1 0.00 0.00 0.00 68 1020.6
20260506234026 16 242 8.0 12.9 0.00 0.00 0.00 68 1020.6
20260506233104 17 221 8.0 11.3 0.00 0.00 0.00 67 1020.6
20260506232027 16 210 4.8 8.0 0.00 0.00 0.00 68 1020.6
20260506231032 16 233 6.4 11.3 0.00 0.00 0.00 70 1020.7
20260506230016 16 200 8.0 11.3 0.00 0.00 0.00 70 1020.7
20260506225019 16 240 6.4 8.0 0.00 0.00 0.00 70 1020.8
20260506224042 16 245 6.4 11.3 0.00 0.00 0.00 70 1020.8
20260506223046 15 213 8.0 11.3 0.00 0.00 0.00 70 1020.9
20260506222029 16 259 6.4 9.7 0.00 0.00 0.00 69 1021.0
20260506221027 16 279 4.8 11.3 0.00 0.00 0.00 70 1021.0
20260506220030 16 246 4.8 8.0 0.00 0.00 0.00 71 1021.0
20260506215054 15 210 6.4 8.0 0.00 0.00 0.00 71 1021.1
20260506214018 15 230 4.8 6.4 0.00 0.00 0.00 73 1021.1
20260506213021 15 242 8.0 11.3 0.00 0.00 0.00 74 1021.1
20260506212029 15 197 6.4 9.7 0.00 0.00 0.00 75 1021.1
20260506211023 15 210 6.4 11.3 0.00 0.00 0.00 76 1021.1
20260506210019 15 236 6.4 11.3 0.00 0.00 0.00 75 1021.1
20260506205037 15 191 8.0 9.7 0.00 0.00 0.00 76 1021.0
20260506204108 15 211 9.7 12.9 0.00 0.00 0.00 76 1021.0
20260506203030 15 189 6.4 9.7 0.00 0.00 0.00 77 1021.0
20260506202114 15 221 6.4 11.3 0.00 0.00 0.00 78 1020.9
20260506201019 15 216 4.8 8.0 0.00 0.00 0.00 79 1021.0
20260506200023 14 227 6.4 9.7 0.00 0.00 0.00 81 1020.9
20260506195027 14 241 8.0 9.7 0.00 0.00 0.00 82 1020.9
20260506194029 13 228 8.0 16.1 0.00 0.00 0.00 83 1020.9
20260506193118 14 213 6.4 11.3 0.00 0.00 0.00 83 1020.8
20260506192018 14 183 3.2 8.0 0.00 0.00 0.00 84 1020.8
20260506191016 13 209 6.4 8.0 0.00 0.00 0.00 85 1020.8
20260506190031 13 220 6.4 9.7 0.00 0.00 0.00 86 1020.9
20260506185017 13 225 4.8 8.0 0.00 0.00 0.00 86 1020.9
20260506184021 13 212 6.4 9.7 0.00 0.00 0.00 86 1020.8
20260506183025 13 221 4.8 6.4 0.00 0.00 0.00 85 1020.6
20260506182027 13 220 3.2 6.4 0.00 0.00 0.00 86 1020.8
20260506181031 13 241 4.8 6.4 0.00 0.00 0.00 85 1020.8
20260506180016 13 205 4.8 8.0 0.00 0.00 0.00 85 1020.6
20260506175020 13 209 3.2 6.4 0.00 0.00 0.00 86 1020.7
20260506174022 13 205 4.8 9.7 0.00 0.00 0.00 87 1020.8
20260506173025 12 203 4.8 9.7 0.00 0.00 0.00 89 1020.7
20260506172022 12 228 6.4 8.0 0.00 0.00 0.00 89 1020.7
20260506171019 12 211 4.8 6.4 0.00 0.00 0.00 89 1020.6
20260506170016 12 203 8.0 11.3 0.00 0.00 0.00 89 1020.5
20260506165031 12 206 4.8 9.7 0.00 0.00 0.00 88 1020.4
20260506164017 13 206 4.8 6.4 0.00 0.00 0.00 88 1020.3
20260506163019 12 250 1.6 3.2 0.00 0.00 0.00 90 1020.2
20260506162023 12 208 1.6 4.8 0.00 0.00 0.00 91 1020.4
20260506161025 12 195 3.2 4.8 0.00 0.00 0.00 91 1020.5
20260506160028 12 176 4.8 8.0 0.00 0.00 0.00 91 1020.3
20260506155031 12 214 4.8 9.7 0.00 0.00 0.00 91 1020.2
20260506154021 12 203 0.0 3.2 0.00 0.00 0.00 92 1020.1
20260506153020 11 205 6.4 8.0 0.00 0.00 0.00 92 1020.3
20260506152044 11 195 4.8 8.0 0.00 0.00 0.00 94 1020.4
20260506151047 11 233 6.4 8.0 0.00 0.00 0.00 93 1020.4
20260506150045 11 190 8.0 9.7 0.00 0.00 0.00 93 1020.0
20260506145029 11 201 4.8 6.4 0.00 0.00 0.00 94 1019.9
20260506144031 11 231 3.2 8.0 0.00 0.00 0.00 94 1019.8
20260506143017 11 220 4.8 8.0 0.00 0.00 0.00 94 1020.1
20260506142020 11 209 4.8 8.0 0.00 0.00 0.00 94 1020.1
20260506141043 11 200 4.8 8.0 0.00 0.00 0.00 94 1019.9
20260506140025 11 194 3.2 6.4 0.00 0.00 0.00 93 1020.1
20260506135023 11 195 4.8 9.7 0.00 0.00 0.00 93 1020.0
20260506134020 11 221 6.4 9.7 0.00 0.00 0.00 93 1019.8
20260506133017 11 210 4.8 6.4 0.00 0.00 0.00 94 1019.6
20260506132020 11 220 4.8 8.0 0.00 0.00 0.00 94 1019.5
20260506131025 11 191 3.2 6.4 0.00 0.00 0.00 94 1019.6
20260506130028 11 207 1.6 4.8 0.00 0.00 0.00 95 1019.4
20260506125031 11 261 1.6 3.2 0.00 0.00 0.00 95 1019.3
20260506124016 12 0.0 0.0 0.00 0.00 0.00 95 1019.3
20260506123039 12 0.0 0.0 0.00 0.00 0.00 96 1019.4
20260506122024 11 0.0 0.0 0.00 0.00 0.00 96 1019.3
20260506121020 11 248 0.0 4.8 0.00 0.00 0.00 95 1019.0
20260506120043 11 157 1.6 6.4 0.00 0.00 0.00 96 1019.1
20260506115027 11 135 0.0 3.2 0.00 0.00 0.00 96 1019.1
20260506114030 11 0.0 1.6 0.00 0.00 0.00 95 1019.2
20260506113016 12 203 0.0 3.2 0.00 0.00 0.00 95 1019.2
20260506112019 12 197 1.6 4.8 0.00 0.00 0.00 95 1019.1
20260506111022 12 243 3.2 4.8 0.00 0.00 0.00 93 1019.1
20260506110049 12 212 4.8 6.4 0.00 0.00 0.00 91 1018.9
20260506105027 12 234 4.8 8.0 0.00 0.00 0.00 90 1018.8
20260506104030 12 215 4.8 8.0 0.00 0.00 0.00 89 1018.7
20260506103017 12 192 3.2 4.8 0.00 0.00 0.00 89 1018.6
20260506102019 12 250 3.2 6.4 0.00 0.00 0.00 89 1018.5
20260506101022 12 203 0.0 3.2 0.00 0.00 0.00 89 1018.3
20260506100019 12 203 0.0 3.2 0.00 0.00 0.00 89 1018.2
20260506095036 12 188 3.2 6.4 0.00 0.00 0.00 89 1018.2
20260506094025 12 229 3.2 4.8 0.00 0.00 0.00 89 1018.2
20260506093104 12 200 3.2 6.4 0.00 0.00 0.00 89 1018.1
20260506092027 12 217 3.2 6.4 0.00 0.00 0.00 89 1018.1
20260506091051 12 254 1.6 4.8 0.00 0.00 0.00 89 1018.0
20260506090015 12 225 1.6 3.2 0.00 0.00 0.00 88 1018.0
20260506085019 12 230 1.6 4.8 0.00 0.00 0.00 88 1017.9
20260506084022 12 260 1.6 4.8 0.00 0.00 0.00 88 1017.9
20260506083024 12 224 3.2 4.8 0.00 0.00 0.00 88 1017.9
20260506082027 12 180 3.2 4.8 0.00 0.00 0.00 88 1017.9
20260506081031 12 198 3.2 4.8 0.00 0.00 0.00 88 1017.9